Time,TemperatureF,DewpointF,PressureIn,WindDirection,WindDirectionDegrees,WindSpeedMPH,WindSpeedGustMPH,Humidity,HourlyPrecipIn,Conditions,Clouds,dailyrainin,SoftwareType,DateUTC
2013-04-17 00:00:00,69.4,60.7,29.98,SSE,157,0.0,0.0,75,0.00,,,0.00,WUHU21623XXSP,2013-04-17 05:00:00,
2013-04-17 00:05:00,69.6,60.9,29.99,SSE,157,0.0,0.0,74,0.00,,,0.00,WUHU21623XXSP,2013-04-17 05:05:00,
2013-04-17 00:10:00,69.6,60.9,29.99,SSE,157,0.0,0.0,74,0.00,,,0.00,WUHU21623XXSP,2013-04-17 05:10:00,
2013-04-17 00:15:00,69.6,61.3,29.99,SSE,157,0.0,0.0,75,0.00,,,0.00,WUHU21623XXSP,2013-04-17 05:15:00,
2013-04-17 00:20:00,69.1,60.8,29.99,SSE,157,0.0,0.0,75,0.00,,,0.00,WUHU21623XXSP,2013-04-17 05:20:00,
2013-04-17 00:25:00,68.7,60.8,29.99,SSE,157,0.0,0.0,76,0.00,,,0.00,WUHU21623XXSP,2013-04-17 05:25:00,
2013-04-17 00:30:00,68.2,60.7,29.99,SSE,157,0.0,0.0,76,0.00,,,0.00,WUHU21623XXSP,2013-04-17 05:30:00,
2013-04-17 00:35:00,67.6,60.2,29.99,SSE,157,0.0,0.0,78,0.00,,,0.00,WUHU21623XXSP,2013-04-17 05:35:00,
2013-04-17 00:40:00,67.6,60.6,29.99,SSE,157,0.0,0.0,78,0.00,,,0.00,WUHU21623XXSP,2013-04-17 05:40:00,
2013-04-17 00:45:00,67.8,60.8,29.99,SSE,157,0.0,0.0,78,0.00,,,0.00,WUHU21623XXSP,2013-04-17 05:45:00,
2013-04-17 00:50:00,67.8,60.8,29.99,SSE,157,0.0,0.0,78,0.00,,,0.00,WUHU21623XXSP,2013-04-17 05:50:00,
2013-04-17 00:55:00,67.8,60.8,29.99,SSE,157,0.0,0.0,78,0.00,,,0.00,WUHU21623XXSP,2013-04-17 05:55:00,
2013-04-17 01:00:00,68.2,61.5,30.00,SSE,157,0.0,0.0,79,0.00,,,0.00,WUHU21623XXSP,2013-04-17 06:00:00,
2013-04-17 01:05:00,68.2,61.5,30.00,SSE,157,0.0,0.0,79,0.00,,,0.00,WUHU21623XXSP,2013-04-17 06:05:00,
2013-04-17 01:15:00,69.6,62.4,29.99,SSE,157,0.0,0.0,78,0.00,,,0.00,WUHU21623XXSP,2013-04-17 06:15:00,
2013-04-17 01:20:00,70.3,63.1,29.99,SSE,157,0.0,0.0,78,0.00,,,0.00,WUHU21623XXSP,2013-04-17 06:20:00,
2013-04-17 01:25:00,70.5,62.9,29.99,SSE,157,0.0,4.3,77,0.00,,,0.00,WUHU21623XXSP,2013-04-17 06:25:00,
2013-04-17 01:30:00,70.7,63.1,29.99,SSE,157,0.0,4.3,77,0.00,,,0.00,WUHU21623XXSP,2013-04-17 06:30:00,
2013-04-17 01:35:00,71.2,63.6,29.99,SSE,157,0.0,1.6,77,0.00,,,0.00,WUHU21623XXSP,2013-04-17 06:35:00,
2013-04-17 01:40:00,71.1,63.4,29.99,South,180,0.0,1.6,77,0.00,,,0.00,WUHU21623XXSP,2013-04-17 06:40:00,
2013-04-17 01:45:00,70.9,63.3,29.99,SSE,157,0.0,0.0,77,0.00,,,0.00,WUHU21623XXSP,2013-04-17 06:45:00,
2013-04-17 01:50:00,71.2,63.6,29.99,SSE,157,0.0,3.4,77,0.00,,,0.00,WUHU21623XXSP,2013-04-17 06:50:00,
2013-04-17 01:55:00,70.9,63.3,29.99,SSE,157,0.0,3.4,77,0.00,,,0.00,WUHU21623XXSP,2013-04-17 06:55:00,
2013-04-17 02:00:00,70.7,63.5,29.99,South,180,0.0,0.0,78,0.00,,,0.00,WUHU21623XXSP,2013-04-17 07:00:00,
2013-04-17 02:05:00,70.7,63.5,29.99,South,180,0.0,0.0,78,0.00,,,0.00,WUHU21623XXSP,2013-04-17 07:05:00,
2013-04-17 02:12:00,70.9,63.6,29.99,SSE,157,0.0,2.9,78,0.00,,,0.00,WUHU21623XXSP,2013-04-17 07:12:00,
2013-04-17 02:17:00,70.9,63.6,29.99,SSE,157,1.8,5.6,78,0.00,,,0.00,WUHU21623XXSP,2013-04-17 07:17:00,
2013-04-17 02:22:00,70.5,63.3,29.99,South,180,0.0,5.6,78,0.00,,,0.00,WUHU21623XXSP,2013-04-17 07:22:00,
2013-04-17 02:27:00,70.3,63.5,29.98,South,180,0.0,0.4,79,0.00,,,0.00,WUHU21623XXSP,2013-04-17 07:27:00,
2013-04-17 02:32:00,70.2,63.3,29.98,SSE,157,2.5,2.5,79,0.00,,,0.00,WUHU21623XXSP,2013-04-17 07:32:00,
2013-04-17 02:37:00,70.3,63.5,29.98,SSW,202,0.0,2.5,79,0.00,,,0.00,WUHU21623XXSP,2013-04-17 07:37:00,
2013-04-17 02:42:00,70.3,63.5,29.98,SSE,157,0.0,0.0,79,0.00,,,0.00,WUHU21623XXSP,2013-04-17 07:42:00,
2013-04-17 02:47:00,70.3,63.3,29.98,South,180,5.4,5.4,78,0.00,,,0.00,WUHU21623XXSP,2013-04-17 07:47:00,
2013-04-17 02:52:00,70.7,63.5,29.98,South,180,0.0,5.4,78,0.00,,,0.00,WUHU21623XXSP,2013-04-17 07:52:00,
2013-04-17 02:57:00,70.9,63.6,29.98,SSE,157,0.4,5.6,78,0.00,,,0.00,WUHU21623XXSP,2013-04-17 07:57:00,
2013-04-17 03:02:00,70.9,63.6,29.97,South,180,0.0,5.6,78,0.00,,,0.00,WUHU21623XXSP,2013-04-17 08:02:00,
2013-04-17 03:07:00,70.7,63.5,29.97,SSE,157,0.0,0.0,78,0.00,,,0.00,WUHU21623XXSP,2013-04-17 08:07:00,
2013-04-17 03:12:00,70.5,63.5,29.97,South,180,0.0,0.0,78,0.00,,,0.00,WUHU21623XXSP,2013-04-17 08:12:00,
2013-04-17 03:17:00,70.5,63.3,29.97,South,180,1.1,1.1,78,0.00,,,0.00,WUHU21623XXSP,2013-04-17 08:17:00,
2013-04-17 03:22:00,70.5,63.3,29.97,South,180,0.0,10.5,78,0.00,,,0.00,WUHU21623XXSP,2013-04-17 08:22:00,
2013-04-17 03:27:00,70.3,63.5,29.98,SE,135,0.0,10.5,79,0.00,,,0.00,WUHU21623XXSP,2013-04-17 08:27:00,
2013-04-17 03:32:00,70.3,63.5,29.97,SSE,157,2.5,2.5,79,0.00,,,0.00,WUHU21623XXSP,2013-04-17 08:32:00,
2013-04-17 03:37:00,70.2,63.7,29.97,SSE,157,1.3,2.5,80,0.00,,,0.00,WUHU21623XXSP,2013-04-17 08:37:00,
2013-04-17 03:42:00,70.0,63.7,29.97,SSE,157,1.1,1.3,80,0.00,,,0.00,WUHU21623XXSP,2013-04-17 08:42:00,
2013-04-17 03:47:00,70.2,63.5,29.97,SSE,157,1.6,1.6,80,0.00,,,0.00,WUHU21623XXSP,2013-04-17 08:47:00,
2013-04-17 03:52:00,69.8,63.5,29.97,South,180,0.0,1.6,80,0.00,,,0.00,WUHU21623XXSP,2013-04-17 08:52:00,
2013-04-17 03:57:00,70.0,63.5,29.97,South,180,1.8,1.8,80,0.00,,,0.00,WUHU21623XXSP,2013-04-17 08:57:00,
2013-04-17 04:02:00,69.6,63.2,29.97,SSE,157,0.2,2.0,80,0.00,,,0.00,WUHU21623XXSP,2013-04-17 09:02:00,
2013-04-17 04:07:00,69.4,63.3,29.97,SSE,157,0.0,2.0,81,0.00,,,0.00,WUHU21623XXSP,2013-04-17 09:07:00,
2013-04-17 04:12:00,69.4,63.3,29.97,SSE,157,0.0,0.0,81,0.00,,,0.00,WUHU21623XXSP,2013-04-17 09:12:00,
2013-04-17 04:17:00,69.6,63.5,29.97,SSW,202,0.0,0.0,81,0.00,,,0.00,WUHU21623XXSP,2013-04-17 09:17:00,
2013-04-17 04:22:00,69.4,63.3,29.97,SSE,157,0.0,0.0,81,0.00,,,0.00,WUHU21623XXSP,2013-04-17 09:22:00,
2013-04-17 04:27:00,69.3,63.2,29.96,South,180,0.0,0.0,81,0.00,,,0.00,WUHU21623XXSP,2013-04-17 09:27:00,
2013-04-17 04:32:00,69.3,63.5,29.97,SSE,157,0.0,0.0,82,0.00,,,0.00,WUHU21623XXSP,2013-04-17 09:32:00,
2013-04-17 04:37:00,69.3,63.2,29.96,South,180,0.0,0.0,81,0.00,,,0.00,WUHU21623XXSP,2013-04-17 09:37:00,
2013-04-17 04:42:00,69.1,63.3,29.96,South,180,0.0,0.0,82,0.00,,,0.00,WUHU21623XXSP,2013-04-17 09:42:00,
2013-04-17 04:47:00,68.9,63.3,29.97,South,180,0.0,0.0,82,0.00,,,0.00,WUHU21623XXSP,2013-04-17 09:47:00,
2013-04-17 04:52:00,68.9,63.2,29.97,South,180,0.0,0.0,82,0.00,,,0.00,WUHU21623XXSP,2013-04-17 09:52:00,
2013-04-17 04:57:00,69.1,63.3,29.97,SSE,157,0.0,0.0,82,0.00,,,0.00,WUHU21623XXSP,2013-04-17 09:57:00,
2013-04-17 05:02:00,68.9,63.2,29.97,South,180,0.0,0.0,82,0.00,,,0.00,WUHU21623XXSP,2013-04-17 10:02:00,
2013-04-17 05:07:00,69.1,63.3,29.96,SSE,157,0.0,1.1,82,0.00,,,0.00,WUHU21623XXSP,2013-04-17 10:07:00,
2013-04-17 05:12:00,69.1,63.3,29.96,WSW,247,0.0,1.1,82,0.00,,,0.00,WUHU21623XXSP,2013-04-17 10:12:00,
2013-04-17 05:17:00,69.4,63.7,29.96,SSE,157,0.0,7.8,82,0.00,,,0.00,WUHU21623XXSP,2013-04-17 10:17:00,
2013-04-17 05:22:00,69.4,63.7,29.96,South,180,0.0,7.8,82,0.00,,,0.00,WUHU21623XXSP,2013-04-17 10:22:00,
2013-04-17 05:27:00,69.3,63.5,29.97,South,180,0.0,0.0,82,0.00,,,0.00,WUHU21623XXSP,2013-04-17 10:27:00,
2013-04-17 05:32:00,69.1,63.3,29.96,South,180,0.0,0.0,82,0.00,,,0.00,WUHU21623XXSP,2013-04-17 10:32:00,
2013-04-17 05:37:00,69.1,63.3,29.96,SSE,157,0.0,0.0,82,0.00,,,0.00,WUHU21623XXSP,2013-04-17 10:37:00,
2013-04-17 05:42:00,69.1,63.3,29.96,South,180,0.0,0.0,82,0.00,,,0.00,WUHU21623XXSP,2013-04-17 10:42:00,
2013-04-17 05:47:00,69.1,63.3,29.96,South,180,0.0,0.0,82,0.00,,,0.00,WUHU21623XXSP,2013-04-17 10:47:00,
2013-04-17 05:52:00,69.1,63.3,29.96,SSE,157,0.0,0.0,82,0.00,,,0.00,WUHU21623XXSP,2013-04-17 10:52:00,
2013-04-17 05:57:00,69.3,63.5,29.97,South,180,0.0,0.0,82,0.00,,,0.00,WUHU21623XXSP,2013-04-17 10:57:00,
2013-04-17 06:02:00,69.1,63.3,29.97,South,180,0.0,0.0,82,0.00,,,0.00,WUHU21623XXSP,2013-04-17 11:02:00,
2013-04-17 06:07:00,69.1,63.3,29.97,SSE,157,1.1,1.1,82,0.00,,,0.00,WUHU21623XXSP,2013-04-17 11:07:00,
2013-04-17 06:12:00,68.9,63.3,29.97,SSW,202,0.0,1.1,82,0.00,,,0.00,WUHU21623XXSP,2013-04-17 11:12:00,
2013-04-17 06:17:00,68.9,63.2,29.97,SSE,157,0.0,0.0,82,0.00,,,0.00,WUHU21623XXSP,2013-04-17 11:17:00,
2013-04-17 06:22:00,69.4,63.7,29.97,South,180,0.0,0.0,82,0.00,,,0.00,WUHU21623XXSP,2013-04-17 11:22:00,
2013-04-17 06:27:00,69.4,63.7,29.97,SSE,157,1.6,1.6,82,0.00,,,0.00,WUHU21623XXSP,2013-04-17 11:27:00,
2013-04-17 06:32:00,69.6,63.8,29.97,SSE,157,0.0,1.6,82,0.00,,,0.00,WUHU21623XXSP,2013-04-17 11:32:00,
2013-04-17 06:37:00,69.6,63.5,29.98,South,180,0.0,5.1,81,0.00,,,0.00,WUHU21623XXSP,2013-04-17 11:37:00,
2013-04-17 06:42:00,69.6,63.5,29.97,SSW,202,10.5,10.5,81,0.00,,,0.00,WUHU21623XXSP,2013-04-17 11:42:00,
2013-04-17 06:47:00,70.0,63.8,29.97,SSE,157,0.0,10.5,81,0.00,,,0.00,WUHU21623XXSP,2013-04-17 11:47:00,
2013-04-17 06:52:00,70.0,63.5,29.97,South,180,0.0,10.5,80,0.00,,,0.00,WUHU21623XXSP,2013-04-17 11:52:00,
2013-04-17 06:57:00,70.0,63.5,29.97,South,180,0.0,6.3,80,0.00,,,0.00,WUHU21623XXSP,2013-04-17 11:57:00,
2013-04-17 07:02:00,70.0,63.7,29.97,SSE,157,0.0,6.3,80,0.00,,,0.00,WUHU21623XXSP,2013-04-17 12:02:00,
2013-04-17 07:07:00,70.0,63.5,29.97,South,180,0.0,0.0,80,0.00,,,0.00,WUHU21623XXSP,2013-04-17 12:07:00,
2013-04-17 07:12:00,69.8,63.5,29.97,SE,135,8.3,8.3,80,0.00,,,0.00,WUHU21623XXSP,2013-04-17 12:12:00,
2013-04-17 07:17:00,69.8,63.7,29.97,SSE,157,0.0,8.3,81,0.00,,,0.00,WUHU21623XXSP,2013-04-17 12:17:00,
2013-04-17 07:22:00,70.2,63.7,29.96,SSE,157,0.0,8.3,80,0.00,,,0.00,WUHU21623XXSP,2013-04-17 12:22:00,
2013-04-17 07:27:00,70.5,63.9,29.97,SSE,157,0.0,0.0,80,0.00,,,0.00,WUHU21623XXSP,2013-04-17 12:27:00,
2013-04-17 07:32:00,71.1,64.0,29.97,SSE,157,0.0,0.0,79,0.00,,,0.00,WUHU21623XXSP,2013-04-17 12:32:00,
2013-04-17 07:37:00,71.1,64.2,29.97,SSE,157,0.0,0.7,79,0.00,,,0.00,WUHU21623XXSP,2013-04-17 12:37:00,
2013-04-17 07:42:00,70.9,64.0,29.97,SSE,157,0.0,0.7,79,0.00,,,0.00,WUHU21623XXSP,2013-04-17 12:42:00,
2013-04-17 07:47:00,71.8,64.5,29.96,SSE,157,0.0,1.6,78,0.00,,,0.00,WUHU21623XXSP,2013-04-17 12:47:00,
2013-04-17 07:52:00,73.0,64.7,29.97,SSE,157,0.0,6.5,75,0.00,,,0.00,WUHU21623XXSP,2013-04-17 12:52:00,
2013-04-17 07:57:00,72.5,64.7,29.97,SSW,202,0.2,6.5,76,0.00,,,0.00,WUHU21623XXSP,2013-04-17 12:57:00,
2013-04-17 08:02:00,72.3,64.3,29.97,SSE,157,0.0,3.4,76,0.00,,,0.00,WUHU21623XXSP,2013-04-17 13:02:00,
2013-04-17 08:07:00,72.5,64.9,29.97,South,180,0.0,3.4,77,0.00,,,0.00,WUHU21623XXSP,2013-04-17 13:07:00,
2013-04-17 08:12:00,73.2,65.0,29.97,SSE,157,6.5,6.5,76,0.00,,,0.00,WUHU21623XXSP,2013-04-17 13:12:00,
2013-04-17 08:17:00,73.9,65.2,29.97,WSW,247,0.0,6.5,74,0.00,,,0.00,WUHU21623XXSP,2013-04-17 13:17:00,
2013-04-17 08:22:00,74.1,65.3,29.96,SSE,157,0.0,2.5,74,0.00,,,0.00,WUHU21623XXSP,2013-04-17 13:22:00,
2013-04-17 08:27:00,74.5,65.7,29.97,SSW,202,4.0,4.0,74,0.00,,,0.00,WUHU21623XXSP,2013-04-17 13:27:00,
2013-04-17 08:32:00,74.7,65.4,29.97,South,180,0.0,4.0,73,0.00,,,0.00,WUHU21623XXSP,2013-04-17 13:32:00,
2013-04-17 08:37:00,74.5,65.7,29.97,SSE,157,0.0,2.7,73,0.00,,,0.00,WUHU21623XXSP,2013-04-17 13:37:00,
2013-04-17 08:42:00,74.1,65.3,29.97,SE,135,0.0,5.8,74,0.00,,,0.00,WUHU21623XXSP,2013-04-17 13:42:00,
2013-04-17 08:47:00,73.9,65.2,29.97,SW,225,6.3,6.3,74,0.00,,,0.00,WUHU21623XXSP,2013-04-17 13:47:00,
2013-04-17 08:52:00,73.8,65.4,29.97,South,180,6.7,6.7,75,0.00,,,0.00,WUHU21623XXSP,2013-04-17 13:52:00,
2013-04-17 08:57:00,73.4,65.2,29.97,SSW,202,4.9,6.7,76,0.00,,,0.00,WUHU21623XXSP,2013-04-17 13:57:00,
2013-04-17 09:02:00,73.6,65.4,29.97,SSW,202,7.4,7.4,76,0.00,,,0.00,WUHU21623XXSP,2013-04-17 14:02:00,
2013-04-17 09:07:00,73.8,65.8,29.96,SE,135,0.7,7.4,76,0.00,,,0.00,WUHU21623XXSP,2013-04-17 14:07:00,
2013-04-17 09:12:00,74.3,65.9,29.96,SE,135,0.0,6.3,75,0.00,,,0.00,WUHU21623XXSP,2013-04-17 14:12:00,
2013-04-17 09:17:00,75.0,66.6,29.96,SSE,157,0.0,6.3,75,0.00,,,0.00,WUHU21623XXSP,2013-04-17 14:17:00,
2013-04-17 09:22:00,75.0,66.2,29.97,SSE,157,6.5,6.5,74,0.00,,,0.00,WUHU21623XXSP,2013-04-17 14:22:00,
2013-04-17 09:27:00,75.0,66.6,29.97,SSE,157,4.7,6.5,75,0.00,,,0.00,WUHU21623XXSP,2013-04-17 14:27:00,
2013-04-17 09:32:00,75.0,66.6,29.97,SSE,157,0.0,4.7,75,0.00,,,0.00,WUHU21623XXSP,2013-04-17 14:32:00,
2013-04-17 09:37:00,75.0,66.6,29.97,SSE,157,8.9,8.9,75,0.00,,,0.00,WUHU21623XXSP,2013-04-17 14:37:00,
2013-04-17 09:42:00,74.8,66.4,29.97,SE,135,2.0,8.9,75,0.00,,,0.00,WUHU21623XXSP,2013-04-17 14:42:00,
2013-04-17 09:47:00,75.4,66.6,29.97,SSE,157,0.0,15.7,75,0.00,,,0.00,WUHU21623XXSP,2013-04-17 14:47:00,
2013-04-17 09:52:00,75.6,66.7,29.97,South,180,6.9,15.7,74,0.00,,,0.00,WUHU21623XXSP,2013-04-17 14:52:00,
2013-04-17 09:57:00,75.6,66.5,29.97,South,180,6.9,7.8,74,0.00,,,0.00,WUHU21623XXSP,2013-04-17 14:57:00,
2013-04-17 10:02:00,75.0,66.6,29.97,SSE,157,13.0,13.0,75,0.00,,,0.00,WUHU21623XXSP,2013-04-17 15:02:00,
2013-04-17 10:07:00,75.4,66.9,29.96,SSE,157,6.9,13.0,75,0.00,,,0.00,WUHU21623XXSP,2013-04-17 15:07:00,
2013-04-17 10:12:00,76.3,66.8,29.96,SSE,157,2.7,6.9,74,0.00,,,0.00,WUHU21623XXSP,2013-04-17 15:12:00,
2013-04-17 10:17:00,76.8,67.1,29.97,West,270,4.7,5.4,72,0.00,,,0.00,WUHU21623XXSP,2013-04-17 15:17:00,
2013-04-17 10:22:00,77.7,67.6,29.97,SSW,202,9.6,9.6,71,0.00,,,0.00,WUHU21623XXSP,2013-04-17 15:22:00,
2013-04-17 10:27:00,78.4,67.4,29.96,SSW,202,9.6,9.6,70,0.00,,,0.00,WUHU21623XXSP,2013-04-17 15:27:00,
2013-04-17 10:32:00,80.6,68.4,29.95,SSE,157,2.0,9.6,67,0.00,,,0.00,WUHU21623XXSP,2013-04-17 15:32:00,
2013-04-17 10:37:00,80.1,68.0,29.96,South,180,4.5,9.6,66,0.00,,,0.00,WUHU21623XXSP,2013-04-17 15:37:00,
2013-04-17 10:42:00,78.1,67.1,29.95,South,180,2.9,7.8,69,0.00,,,0.00,WUHU21623XXSP,2013-04-17 15:42:00,
2013-04-17 10:47:00,77.2,67.1,29.94,SW,225,2.0,7.8,71,0.00,,,0.00,WUHU21623XXSP,2013-04-17 15:47:00,
2013-04-17 10:52:00,76.8,66.9,29.94,SW,225,2.0,7.2,70,0.00,,,0.00,WUHU21623XXSP,2013-04-17 15:52:00,
2013-04-17 10:57:00,77.5,67.0,29.93,South,180,6.9,6.9,70,0.00,,,0.00,WUHU21623XXSP,2013-04-17 15:57:00,
2013-04-17 11:02:00,78.1,66.9,29.94,SE,135,4.3,6.9,69,0.00,,,0.00,WUHU21623XXSP,2013-04-17 16:02:00,
2013-04-17 11:07:00,77.7,66.9,29.93,South,180,5.1,5.1,69,0.00,,,0.00,WUHU21623XXSP,2013-04-17 16:07:00,
2013-04-17 11:12:00,78.6,67.1,29.93,SSE,157,1.3,5.1,68,0.00,,,0.00,WUHU21623XXSP,2013-04-17 16:12:00,
2013-04-17 11:17:00,80.2,67.4,29.93,SSE,157,4.5,5.1,65,0.00,,,0.00,WUHU21623XXSP,2013-04-17 16:17:00,
2013-04-17 11:22:00,80.6,67.6,29.93,SSW,202,6.0,6.0,65,0.00,,,0.00,WUHU21623XXSP,2013-04-17 16:22:00,
2013-04-17 11:27:00,80.2,67.4,29.93,SE,135,4.7,7.6,65,0.00,,,0.00,WUHU21623XXSP,2013-04-17 16:27:00,
2013-04-17 11:32:00,79.5,67.1,29.93,SSE,157,2.0,7.6,66,0.00,,,0.00,WUHU21623XXSP,2013-04-17 16:32:00,
2013-04-17 11:37:00,79.2,66.8,29.93,South,180,2.9,2.9,66,0.00,,,0.00,WUHU21623XXSP,2013-04-17 16:37:00,
2013-04-17 11:42:00,79.0,66.2,29.94,SE,135,0.0,2.9,65,0.00,,,0.00,WUHU21623XXSP,2013-04-17 16:42:00,
2013-04-17 11:47:00,78.6,66.7,29.94,SSE,157,0.2,5.6,67,0.00,,,0.00,WUHU21623XXSP,2013-04-17 16:47:00,
2013-04-17 11:52:00,79.3,67.0,29.93,ESE,112,0.0,5.6,66,0.00,,,0.00,WUHU21623XXSP,2013-04-17 16:52:00,
2013-04-17 11:57:00,79.3,67.0,29.93,SSE,157,0.4,3.4,66,0.00,,,0.00,WUHU21623XXSP,2013-04-17 16:57:00,
2013-04-17 12:02:00,81.7,67.8,29.93,SSE,157,0.0,3.4,63,0.00,,,0.00,WUHU21623XXSP,2013-04-17 17:02:00,
2013-04-17 12:07:00,83.7,68.8,29.92,South,180,3.8,3.8,61,0.00,,,0.00,WUHU21623XXSP,2013-04-17 17:07:00,
2013-04-17 12:12:00,83.1,68.5,29.92,SSE,157,6.3,6.3,59,0.00,,,0.00,WUHU21623XXSP,2013-04-17 17:12:00,
2013-04-17 12:17:00,81.7,66.9,29.92,South,180,3.4,10.1,61,0.00,,,0.00,WUHU21623XXSP,2013-04-17 17:17:00,
2013-04-17 12:22:00,83.1,66.8,29.92,SSE,157,5.6,10.1,59,0.00,,,0.00,WUHU21623XXSP,2013-04-17 17:22:00,
2013-04-17 12:27:00,83.7,66.9,29.92,South,180,10.5,10.5,57,0.00,,,0.00,WUHU21623XXSP,2013-04-17 17:27:00,
2013-04-17 12:32:00,82.2,66.8,29.91,SE,135,2.2,10.5,58,0.00,,,0.00,WUHU21623XXSP,2013-04-17 17:32:00,
2013-04-17 12:37:00,81.1,66.0,29.92,SSE,157,0.9,2.2,60,0.00,,,0.00,WUHU21623XXSP,2013-04-17 17:37:00,
2013-04-17 12:42:00,82.8,66.4,29.92,SSE,157,6.7,6.7,58,0.00,,,0.00,WUHU21623XXSP,2013-04-17 17:42:00,
2013-04-17 12:47:00,81.9,66.1,29.91,SSE,157,8.1,8.1,59,0.00,,,0.00,WUHU21623XXSP,2013-04-17 17:47:00,
2013-04-17 12:52:00,81.3,65.6,29.91,SSE,157,1.1,8.1,59,0.00,,,0.00,WUHU21623XXSP,2013-04-17 17:52:00,
2013-04-17 12:57:00,85.3,67.3,29.91,SSE,157,4.0,8.7,55,0.00,,,0.00,WUHU21623XXSP,2013-04-17 17:57:00,
2013-04-17 13:02:00,83.7,66.3,29.91,South,180,6.0,8.7,56,0.00,,,0.00,WUHU21623XXSP,2013-04-17 18:02:00,
2013-04-17 13:07:00,83.1,66.3,29.90,SSE,157,6.3,6.3,57,0.00,,,0.00,WUHU21623XXSP,2013-04-17 18:07:00,
2013-04-17 13:12:00,87.3,66.0,29.90,SSE,157,4.7,6.3,51,0.00,,,0.00,WUHU21623XXSP,2013-04-17 18:12:00,
2013-04-17 13:17:00,89.8,67.4,29.90,SSE,157,5.1,6.3,48,0.00,,,0.00,WUHU21623XXSP,2013-04-17 18:17:00,
2013-04-17 21:07:00,76.3,61.8,29.75,SW,225,8.1,8.1,61,0.00,,,0.00,WUHU21623XXSP,2013-04-18 02:07:00,
2013-04-17 21:17:00,76.3,61.8,29.75,South,180,6.0,8.1,61,0.00,,,0.00,WUHU21623XXSP,2013-04-18 02:17:00,
2013-04-17 21:25:00,76.3,61.8,29.75,SSW,202,6.9,6.9,61,0.00,,,0.00,WUHU21623XXSP,2013-04-18 02:25:00,
2013-04-17 21:30:00,76.3,61.8,29.75,South,180,0.0,8.7,61,0.00,,,0.00,WUHU21623XXSP,2013-04-18 02:30:00,
2013-04-17 21:35:00,76.3,61.8,29.75,South,180,2.2,8.7,61,0.00,,,0.00,WUHU21623XXSP,2013-04-18 02:35:00,
2013-04-17 21:40:00,76.3,61.8,29.76,SSW,202,8.1,8.1,61,0.00,,,0.00,WUHU21623XXSP,2013-04-18 02:40:00,
2013-04-17 21:45:00,76.3,61.8,29.75,South,180,2.9,8.1,61,0.00,,,0.00,WUHU21623XXSP,2013-04-18 02:45:00,
2013-04-17 21:50:00,76.3,61.8,29.75,SSE,157,0.0,9.8,61,0.00,,,0.00,WUHU21623XXSP,2013-04-18 02:50:00,
2013-04-17 21:55:00,76.3,61.8,29.75,South,180,10.7,10.7,61,0.00,,,0.00,WUHU21623XXSP,2013-04-18 02:55:00,
2013-04-17 22:00:00,76.3,61.8,29.76,South,180,2.5,10.7,61,0.00,,,0.00,WUHU21623XXSP,2013-04-18 03:00:00,
2013-04-17 22:05:00,76.1,61.7,29.75,South,180,11.0,11.0,61,0.00,,,0.00,WUHU21623XXSP,2013-04-18 03:05:00,
2013-04-17 22:10:00,76.1,61.7,29.74,SE,135,0.0,11.0,61,0.00,,,0.00,WUHU21623XXSP,2013-04-18 03:10:00,
2013-04-17 22:15:00,76.1,61.7,29.74,SSW,202,3.8,5.1,61,0.00,,,0.00,WUHU21623XXSP,2013-04-18 03:15:00,
2013-04-17 22:20:00,76.1,62.1,29.74,South,180,2.2,4.3,62,0.00,,,0.00,WUHU21623XXSP,2013-04-18 03:20:00,
2013-04-17 22:25:00,75.9,62.0,29.74,SSW,202,3.4,3.4,62,0.00,,,0.00,WUHU21623XXSP,2013-04-18 03:25:00,
2013-04-17 22:30:00,75.9,62.0,29.73,South,180,6.0,6.0,62,0.00,,,0.00,WUHU21623XXSP,2013-04-18 03:30:00,
2013-04-17 22:35:00,75.9,62.0,29.74,South,180,2.7,6.0,62,0.00,,,0.00,WUHU21623XXSP,2013-04-18 03:35:00,
2013-04-17 22:40:00,75.9,62.0,29.74,SW,225,0.4,4.3,62,0.00,,,0.00,WUHU21623XXSP,2013-04-18 03:40:00,
2013-04-17 22:45:00,75.9,62.0,29.73,SE,135,5.1,11.4,62,0.00,,,0.00,WUHU21623XXSP,2013-04-18 03:45:00,
2013-04-17 22:50:00,75.9,62.0,29.72,SSE,157,4.5,11.4,62,0.00,,,0.00,WUHU21623XXSP,2013-04-18 03:50:00,
2013-04-17 22:56:00,75.9,62.4,29.72,South,180,4.3,5.6,63,0.00,,,0.00,WUHU21623XXSP,2013-04-18 03:56:00,
2013-04-17 23:01:00,75.9,62.4,29.72,South,180,5.1,5.1,63,0.00,,,0.00,WUHU21623XXSP,2013-04-18 04:01:00,
2013-04-17 23:06:00,75.7,62.7,29.73,SE,135,2.0,5.1,64,0.00,,,0.00,WUHU21623XXSP,2013-04-18 04:06:00,
2013-04-17 23:11:00,75.6,62.5,29.71,SE,135,10.3,10.3,64,0.00,,,0.00,WUHU21623XXSP,2013-04-18 04:11:00,
2013-04-17 23:16:00,75.4,62.3,29.72,SSE,157,4.5,10.3,64,0.00,,,0.00,WUHU21623XXSP,2013-04-18 04:16:00,
2013-04-17 23:21:00,75.0,62.9,29.72,South,180,8.1,8.1,66,0.00,,,0.00,WUHU21623XXSP,2013-04-18 04:21:00,
2013-04-17 23:26:00,74.5,62.8,29.72,SE,135,5.8,8.1,67,0.00,,,0.00,WUHU21623XXSP,2013-04-18 04:26:00,
2013-04-17 23:31:00,73.9,62.7,29.71,SSE,157,0.0,5.8,68,0.00,,,0.00,WUHU21623XXSP,2013-04-18 04:31:00,
2013-04-17 23:36:00,73.9,62.7,29.71,SSW,202,3.8,3.8,68,0.00,,,0.00,WUHU21623XXSP,2013-04-18 04:36:00,
2013-04-17 23:41:00,73.9,62.7,29.71,South,180,2.9,4.3,68,0.00,,,0.00,WUHU21623XXSP,2013-04-18 04:41:00,
2013-04-17 23:46:00,73.9,63.2,29.71,SSW,202,0.0,4.3,69,0.00,,,0.00,WUHU21623XXSP,2013-04-18 04:46:00,
2013-04-17 23:51:00,73.9,63.2,29.71,South,180,0.0,3.4,69,0.00,,,0.00,WUHU21623XXSP,2013-04-18 04:51:00,
2013-04-17 23:56:00,73.8,63.0,29.71,South,180,0.0,9.4,69,0.00,,,0.00,WUHU21623XXSP,2013-04-18 04:56:00,